Погода в Кировограде

Хотите узнать прогноз погоды в Кировограде? Тогда Вам сюда: Погода в Кировограде

Поиск расширенной информации на нашем сайте:

Полезная информация:

Новости сайта



14.11.2019
Обновлён Долгосрочный прогноз погоды по России и другим странам хСССР на ноябрь-декабрь 2019 года.
Опубликованы прогностические карты: Предварительный прогноз на декабрь 2019 года, Предварительный прогноз на январь 2020 года, Предварительная схема синоптических процессов на декабрь 2019 г..

11.11.2019
Обновлены Долгосрочный прогноз погоды по России и другим странам хСССР на ноябрь-декабрь 2019 года и Предварительный прогноз на зиму 2019/2020 годов

04.11.2019
Опубликован Долгосрочный прогноз погоды по России и другим странам хСССР на ноябрь 2019 года
Сравнение прогнозируемой аномалии приземной температуры воздуха на ноябрь 2019 года по разным моделям
Предварительный прогноз на зиму 2019/2020 года




Погода в Кировограде - сегодня

Время (UTC), дата Ветер
(°,м/с) 
Видим.   Явления Облачность Т
(°С)
Тd
(°С)
f(%) Тe
(°С)
Pmin
(гПа)
dP
(гПа)
Po
(мм)
O2
(г/м3)
Тmin Tmax R s Состояние
почвы
00 18.11.19 120 (ЮВ) 3000 м  дымка{туман}  10/10 120 м 
[St]
+2.6 +2.1 96 +1  1027.4  -0.6  754  301           
03 18.11.19 100 (В) 2000 м  дымка  10/10 120 м 
[St]
+2.9 +2.4 97 +2  1026.9  -0.4  754  300           
06 18.11.19 100 (В) 0900 м  туман  ?/?  
+2.7 +2.7 100 +1  1026.9  -0.1  754  300  +1.3  -0.3       
09 18.11.19 120 (ЮВ) 3100 м  в посл. час морось{туман}  10/10 120 м 
[St]
+3.8 +3.3 97 +3  1026.8  754  299          затоплена
водой 
12 18.11.19 160 (Ю) 5000 м  дымка{морось, туман}  10/10 180 м 
[St]
+5.8 +4.4 91 +7  1026  -0.6  754  297           
15 18.11.19 тихо ()   4300 м  дымка  10/10 450 м 
[St]
+6.2 +4.8 91 +6  1026.5  0.5  754  296           
18 18.11.19 130 (ЮВ) 4100 м  дымка  10/10 300 м 
[St]
+6.2 +5.1 93 +6  1026.7  0.2  754  296    +6.5  0.0     
21 18.11.19 тихо ()   5000 м  дымка  10/10 400 м 
[St]
+6.4 +5.3 93 +6  1027.7  755  296           
00 19.11.19 130 (ЮВ) 3600 м  дымка  10/6 600 м 
[Sc]
+5.9 +5 94 +5  1027.9  0.2  755  297           
03 19.11.19 140 (ЮВ) 3200 м  дымка  10/10 660 м 
[Sc]
+5.6 +4.7 94 +4  1027.8  -0.1  755  297           
06 19.11.19 140 (ЮВ) 1500 м  слаб. морось  10/10 100 м 
[St]
+5.4 +4.5 94 +5  1029  1.1  756  298  +5.4    0.0     
09 19.11.19 140 (ЮВ) 2900 м  слаб. морось  10/10 150 м 
[St]
+6 +5.3 95 +5  1029.2  0.3  756  297           
12 19.11.19 130 (ЮВ) 6000 м  дымка{морось}  10/10 270 м 
[St]
+6.9 +5.1 88 +7  1028.9  -0.3  756  296           
15 19.11.19 150 (ЮВ) 8000 м  дымка  10/10 450 м 
[St]
+6.8 +4.7 86 +7  1029  0.1  756  296           
18 19.11.19 120 (ЮВ) 8000 м  дымка  10/10 300 м 
[St]
+6.5 +4.2 85 +5  1028.8  -0.2  756  297    +7.2  0.0     
21 19.11.19 130 (ЮВ) 10 км    10/10 360 м 
[St]
+6.1 +4 86 +5  1029  0.2  756  297           
00 20.11.19 110 (В) 4000 м  слаб. морось  10/10 330 м 
[St]
+5 +2.8 86 +4  1029.3  0.2  756  299           
03 20.11.19 110 (В) 1800 м  слаб. морось{дождь}  10/10 100 м 
[St]
+4.1 +3.4 95 +3  1029.2  -0.2  756  300          затоплена
водой 
06 20.11.19 100 (В) 4200 м  в посл. час морось{дождь}  10/10 100 м 
[St]
+3.8 +3.1 95 +3  1029.6  0.4  756  300  +3.8       
09 20.11.19 110 (В) 1900 м  слаб. морось  10/10 180 м 
[St]
+3.6 +3.1 97 +2  1030.2  0.5  757  300           
12 20.11.19 090 (В) 3600 м  в посл. час морось  10/10 150 м 
[St]
+3.7 +3.2 97 +1  1030  -0.1  756  300           
15 20.11.19 080 (В) 10 км    10/10 360 м 
[St]
+3.4 +2.4 93 +1  1030.9  0.8  757  301           
18 20.11.19 090 (В) 10 км  в посл. час морось  10/10 300 м 
[St]
+2.4 +0.8 89 1031.8  0.8  758  303    +3.9  0.6     
21 20.11.19 080 (В) 6000 м  дымка  10/10 300 м 
[St]
+1.5 +0.1 90 -1  1032.8  0.9  758  304           
00 21.11.19 100 (В) 7000 м  дымка  10/10 420 м 
[St]
+1 +0.2 94 -3  1033.4  0.6  759  305           
Время (UTC), дата Ветер
(°,м/с) 
Видим.   Явления Облачность Т
(°С)
Тd
(°С)
f(%) Тe
(°С)
Pmin
(гПа)
dP
(гПа)
Po
(мм)
O2
(г/м3)
Тmin Tmax R s Состояние
почвы

Для получения пояснительной информации подведите курсор к названию столбца.

ПОГОДА в Кировограде - архив

Всё, что Вы хотите узнать о погоде в Кировограде - удобно и подробно!

Выберите нужную дату (начиная с 1 января 2019* года) и нажмите кнопку "Найти".
Будут отображены архивные сводки погоды по пункту Кировоград, начиная с указанной даты.


Отображать данные в формате CSV (для использования в таблицах Excel)


Внимание! Наш архив погоды предназначен исключительно для личного некоммерческого использования в познавательных целях. Если Вам необходимы официальные справки о состоянии погоды (для производственных, юридических, коммерческих и т.п. целей), обращайтесь в органы Росгидромета.

*Примечание: данная дата относится к архиву по метеостанциям СССР (Россия, СНГ, Балтия).
Архив по метеостанциям Зарубежной Европы и Азии (кроме Китая) хранится 10 дней, по другим регионам земного шара (Китай, Африка, Америка, Австралия, Океания) - 1 день.

Кировоград - район местоположения метеостанции


Название, широта, долгота, высота метеостанции:
Кировоград 48.5°ш. 32.2°д. 171 м над ур. моря [Украина]

Дополнительная информация

В oтличие oт бoльшинства пoгoдных сайтoв мы публикуем пoдрoбную метеoинфoрмацию в детальнoм прoфессиoнальнoм фoрмате.

Характеристики температуры и влажнoсти вoздуха измеряются на высoте 2 м в тени вдали oт зданий и деревьев.
Скoрoсть ветра измеряется на высoте 10 м (на урoвне рoста челoвека скoрoсть ветра ниже в 1.5-2 раза). Если метеoстанция нахoдится в гoрoде или в лесу, тo скoрoсть ветра занижена на 2-4 м/с пo сравнению с oткрытым местoм. Скoрoсть ветра над акватoриями крупных рек и oзёр, а также на вершинах хoлмoв на 2-5 м/с выше, чем в oбычных услoвиях.
Атмoсфернoе давление в разных тoчках местнoсти мoжет значительнo oтличаться oт давления на метеoстанции, в зависимoсти oт услoвий рельефа (при пoдъёме на 10 м давление пoнижается примернo на 1 мм рт.ст.).